User: anonymous   Login
Location: S�tio Afonso Gruber
(26.1760°S, 49.5250°W)
Time: 17:10:39
(UTC+00:00)
Language:

ASTRO E2 - Orbit

View from above orbital plane
View from above orbital plane
View from above satellite
View from above satellite

Ground track
Ground track

The orbit data is extracted from the following two-line orbital elements,

1 28773U 05025A   20227.82226775  .00000826  00000-0  35768-4 0  9990
2 28773  31.3830 357.1131 0004331  72.6817 287.4303 15.17635637832813
Epoch (UTC): 14 August 2020 19:44:03
Eccentricity: 0.0004331
inclination: 31.3830°
perigee height: 510 km
apogee height: 516 km
right ascension of ascending node: 357.1131°
argument of perigee: 72.6817°
revolutions per day: 15.17635637
mean anomaly at epoch: 287.4303°
orbit number at epoch: 83281

The dashed part of the orbit path shows where the satellite is in the earth's shadow,  

DLR